Regional Weather Roundup
Issued by NWS

Home | Current Version | Previous Version | Text Only | Print | Product List | Glossary On
Versions: 1 2 3 4 5 6 7 8 9 10 11 12 13 14 15 16 17 18 19 20 21 22 23 24 25 26 27 28 29 30 31 32 33 34 35 36 37 38 39 40 41 42 43 44 45 46 47 48 49 50
000
ASUS43 KDMX 031607
RWRIA

WEATHER ROUNDUP FOR IOWA
NATIONAL WEATHER SERVICE DES MOINES IA
1100 AM CDT THU SEP 03 2015

NOTE: "FAIR" INDICATES FEW OR NO CLOUDS BELOW 12,000 FEET WITH NO
SIGNIFICANT WEATHER AND/OR OBSTRUCTIONS TO VISIBILITY.

* - THESE STATIONS ARE NOT NWS STATIONS...THUS NOT UNDER NWS
QUALITY CONTROL.  THEY ALSO DO NOT REPORT WEATHER SUCH
AS PRECIPITATION OR FOG.

IAZ001>003-012>014-020>022-031>034-043>046-031700-
   NORTHWEST IOWA

CITY           SKY/WX    TMP DP  RH WIND       PRES   REMARKS
CARROLL *      SUNNY     81  72  74 SW12      29.90S HX  84
CHEROKEE *     SUNNY     81  72  74 S12       29.87S HX  84
DENISON *      SUNNY     79  72  78 S8        29.87S HX  82
LE MARS *      SUNNY     81  72  74 SE9       29.86S HX  84
ORANGE CITY *  SUNNY     79  72  78 S9        29.87R HX  82
SHELDON *      SUNNY     79  72  78 S9        29.86S HX  82
SIOUX CITY     SUNNY     80  70  71 S10       29.84S HX  83
SPENCER        SUNNY     81  70  69 S7        29.89S HX  84
STORM LAKE *   SUNNY     79  72  78 S12       29.90R HX  82
$$

IAZ055>058-069>071-079>083-090>094-031700-
   SOUTHWEST IOWA

CITY           SKY/WX    TMP DP  RH WIND       PRES   REMARKS
ATLANTIC *     SUNNY     82  70  65 S14       29.90S HX  86
AUDUBON *      SUNNY     82  72  69 S9        29.92S HX  87
CLARINDA *     SUNNY     82  72  69 S9G15     29.93R HX  87
COUNCIL BLFS * SUNNY     82  68  61 S16       29.89S HX  85
CRESTON *      MOSUNNY   79  72  78 S12G17    29.95S HX  82
LAMONI         MOSUNNY   80  70  71 S8        29.96R HX  83
RED OAK *      MOSUNNY   82  70  65 S10       29.90R HX  86
SHENANDOAH *   MOSUNNY   86  70  58 S12       29.90S HX  90
$$

IAZ047>049-059>061-072>074-084-031700-
   CENTRAL IOWA

CITY           SKY/WX    TMP DP  RH WIND       PRES   REMARKS
AMES           SUNNY     82  71  69 S10       29.92S HX  86
ANKENY *       MOSUNNY   82  70  65 SW7G15    29.92F HX  86
CHARITON *     PTSUNNY   79  73  83 S6        29.95F HX  82
DES MOINES     PTSUNNY   81  69  67 S12       29.93R HX  84
GRINNELL*      SUNNY     82  70  65 S9        29.95F HX  86
KNOXVILLE *    SUNNY     77  72  83 S12       29.93F
MARSHALLTOWN   SUNNY     82  70  66 SW10      29.93R HX  86
PELLA *        PTSUNNY   79  73  83 S7        29.95F HX  82
PERRY *          N/A     81  70  69 S6        29.92S HX  84
$$

IAZ004>006-015-016-023>025-035-036-031700-
   NORTH CENTRAL IOWA

CITY           SKY/WX    TMP DP  RH WIND       PRES   REMARKS
ALGONA *       SUNNY     81  72  74 S8        29.91R HX  84
CLARION *      SUNNY     81  72  74 S10       29.91S HX  84
ESTHERVILLE    SUNNY     78  72  81 S8        29.89S HX  80
FORT DODGE *   SUNNY     81  70  69 S10       29.92S HX  84
MASON CITY     SUNNY     81  73  76 S7        29.93S HX  86
FOREST CITY *  SUNNY     81  70  69 S5        29.92S HX  84
IOWA FALLS *     N/A     82  72  69 S9        29.94S HX  87
$$

IAZ007>011-017>019-026>030-037>042-050>054-066-031700-
   NORTHEAST IOWA

CITY           SKY/WX    TMP DP  RH WIND       PRES   REMARKS
CEDAR RAPIDS   SUNNY     83  74  74 SW8       29.94S HX  89
CHARLES CITY * SUNNY     81  75  83 VRB5      29.93S HX  86
CLINTON *      SUNNY     82  72  69 W12       29.98R HX  87
DECORAH *      SUNNY     81  72  74 CALM      29.93S HX  84
DUBUQUE        SUNNY     82  72  71 SW7       29.96R HX  87
MONTICELLO *   SUNNY     84  72  65 VRB6      29.94S HX  89
OELWEIN *      SUNNY     82  73  74 CALM      29.95R HX  88
WATERLOO       SUNNY     83  71  67 SW10      29.92R HX  87
$$

IAZ064-065-067-068-078-031700-
   EAST CENTRAL IOWA

CITY           SKY/WX    TMP DP  RH WIND       PRES   REMARKS
DAVENPORT      SUNNY     84  72  67 SW10      29.96S HX  89
IOWA CITY      SUNNY     83  71  67 SW12      29.96S HX  87
MT. PLEASANT * SUNNY     86  66  51 SW10      29.98R HX  88
MUSCATINE *    SUNNY     86  70  58 SW9       29.95S HX  90
QUAD CITIES    MOSUNNY   84  70  62 SW8       29.95S HX  88
$$

IAZ062-063-075>077-085>089-095>099-031700-
   SOUTHEAST IOWA

CITY           SKY/WX    TMP DP  RH WIND       PRES   REMARKS
BURLINGTON     SUNNY     86  70  58 SW8       29.98R HX  90
FAIRFIELD *    SUNNY     86  70  58 SW13G18   29.97S HX  90
FORT MADISON * SUNNY     84  72  65 SW9       29.99S HX  89
KEOKUK *       SUNNY     86  70  58 SW12      29.98S HX  90
OSKALOOSA *      N/A     79  70  73 SW6       29.97S HX  81
CENTERVILLE *  SUNNY     82  72  69 SW12      29.98F HX  87
OTTUMWA        MOSUNNY   77  71  82 S10       29.95S
WASHINGTON *     N/A    N/A N/A N/A MISG        N/A
$$

ABBREVIATIONS USED IN REMARKS
   TC - TEMPERATURES IN CELSIUS
  WCI - WIND CHILL INDEX
   HX - HEAT INDEX
  VSB - VISIBILITY
$$




USA.gov is the U.S. government's official web portal to all federal, state and local government web resources and services.